Retour au catalogue

STARLINK-3872

ActifCommunicationsVLEO
NORAD 52453·PAYLOAD·🇺🇸 United States

Lancé May 6, 2022 depuis Cape Canaveral Space Force Station

Loading…

Prochains Passages (prochaines 24 heures)

TLE

FraisSource: CelesTrak SupGP

Époque: Sep 14, 2026, 20:26 UTC

1 52453C 22049C   26257.85187500 -.00004069  00000+0 -11645-3 0  2579
2 52453  53.1601 296.0017 0001207  87.0744 348.4668 15.35391018    18

Suivez STARLINK-3872 en temps réel avec AllMySat

Download on the App Store